Weather History for KLVS - September, 2014

Change the Weather History Date:

Thursday, September 4, 2014

  Actual Average Record
Temperature  
Mean Temperature 68 °F -  
Max Temperature 84 °F 77 °F 89 °F (1948)
Min Temperature 54 °F 49 °F 35 °F (1961)
Cooling Degree Days 3    
Growing Degree Days 18 (Base 50)    
Moisture  
Dew Point 50 °F    
Average Humidity 55    
Maximum Humidity 93    
Minimum Humidity 30    
Precipitation  
Precipitation 0.00 in - - ()
Sea Level Pressure  
Sea Level Pressure 29.87 in    
Wind  
Wind Speed 13 mph (SSW)    
Max Wind Speed 25 mph    
Max Gust Speed 29 mph    
Visibility 10 miles    
Events Rain    
Averages and records for this station are not official NWS values.
T = Trace of Precipitation, MM = Missing Value Source: NWS Daily Summary

Daily Weather History Graph

Daily Weather History Graph

Search for Another Location

Airport or City:

Trip Planner

Search our weather history database for the weather conditions in past years. The results will help you decide how hot, cold, wet, or windy it might be!

Date:

Astronomy

Sep. 04, 2014 Rise Set
Actual Time 6:34 AM MDT 7:23 PM MDT
Civil Twilight 6:09 AM MDT 7:49 PM MDT
Nautical Twilight 5:38 AM MDT 8:19 PM MDT
Astronomical Twilight 5:06 AM MDT 8:51 PM MDT
Moon 3:57 PM MDT (9/4) 1:34 AM MDT (9/4)
Length of Visible Light 13h 40m
Length of Day
12h 48m
Waxing Gibbous, 75% of the Moon is Illuminated
Sep 4
Waxing Gibbous
Sep 8
Full
Sep 15
Last Quarter
Sep 24
New
Oct 1
First Quarter

Hourly Weather History & Observations

Time (MDT) Temp. Dew Point Humidity Pressure Visibility Wind Dir Wind Speed Gust Speed Precip Events Conditions
12:53 AM 63.0 °F 50.0 °F 63% 29.79 in 10.0 mi South 11.5 mph - N/A   Clear
1:53 AM 62.1 °F 54.0 °F 75% 29.78 in 10.0 mi South 12.7 mph - N/A   Clear
3:53 AM 57.0 °F 53.1 °F 87% 29.77 in 10.0 mi South 10.4 mph - N/A   Clear
4:53 AM 55.0 °F 52.0 °F 89% 29.78 in 10.0 mi South 11.5 mph - N/A   Clear
6:53 AM 54.0 °F 52.0 °F 93% 29.82 in 8.0 mi South 11.5 mph - N/A   Clear
7:53 AM 60.1 °F 55.9 °F 86% 29.83 in 10.0 mi South 11.5 mph - N/A   Clear
8:53 AM 70.0 °F 55.0 °F 59% 29.82 in 10.0 mi South 11.5 mph - N/A   Clear
9:53 AM 73.0 °F 52.0 °F 48% 29.80 in 10.0 mi SSW 15.0 mph - N/A   Clear
10:53 AM 75.9 °F 52.0 °F 43% 29.83 in 10.0 mi SSW 16.1 mph - N/A   Clear
11:53 AM 80.1 °F 50.0 °F 35% 29.80 in 10.0 mi SSW 13.8 mph - N/A   Clear
12:53 PM 80.1 °F 46.0 °F 30% 29.80 in 10.0 mi South 17.3 mph - N/A   Clear
1:53 PM 82.9 °F 48.9 °F 31% 29.77 in 10.0 mi South 16.1 mph 25.3 mph N/A   Clear
2:53 PM 75.9 °F 55.0 °F 48% 29.81 in 10.0 mi SSE 20.7 mph 28.8 mph N/A   Partly Cloudy
3:53 PM 73.9 °F 55.9 °F 53% 29.83 in 10.0 mi South 19.6 mph - 0.00 in Rain Light Rain
4:15 PM 73.0 °F 48.0 °F 41% 30.14 in 10.0 mi South 25.3 mph - 0.00 in Rain Light Rain
4:42 PM 72.0 °F 52.0 °F 49% 30.15 in 10.0 mi South 11.5 mph - 0.00 in   Mostly Cloudy
4:53 PM 73.0 °F 51.1 °F 46% 29.85 in 10.0 mi SW 16.1 mph - 0.00 in   Scattered Clouds
5:51 PM 73.4 °F 46.4 °F 38% 30.15 in 10.0 mi SSW 12.7 mph - N/A   Clear
5:53 PM 72.0 °F 46.0 °F 40% 29.86 in 10.0 mi SSW 15.0 mph - N/A   Clear
6:53 PM 68.0 °F 45.0 °F 43% 29.88 in 10.0 mi SSW 9.2 mph - N/A   Partly Cloudy
7:53 PM 64.9 °F 45.0 °F 48% 29.90 in 10.0 mi SSW 15.0 mph - N/A   Clear
8:53 PM 63.0 °F 46.9 °F 56% 29.90 in 10.0 mi SW 23.0 mph 26.5 mph N/A   Clear
9:53 PM 59.0 °F 46.9 °F 64% 29.92 in 10.0 mi SSW 9.2 mph - N/A   Clear
10:53 PM 60.1 °F 46.0 °F 60% 29.90 in 10.0 mi SW 8.1 mph - N/A   Clear
11:53 PM 59.0 °F 45.0 °F 60% 29.91 in 10.0 mi South 9.2 mph - N/A   Clear